Temp_Advection
nan nan nan nan nan nan nan nan nan nan nan nan nan nan nan nan nan nan nan nan nan nan nan nan nan nan nan nan nan nan nan nan nan nan nan nan nan nan nan nan nan nan nan nan nan
nan -0 -0 -0 -0 -1 -1 -1 -1 -1 -2 -1 -1 -1 -1 -1 -1 -2 -1 -0 -0 -0 -0 -0 -1 -1 -1 -1 -1 -1 -1 -1 -1 -0 0 0 0 0 0 -0 -0 -0 0 1 nan
nan -1 -0 -0 -0 -0 -0 -0 -1 -1 -1 -1 -1 -1 -1 -0 -1 -2 -0 -0 -1 -1 0 -0 -0 -1 -1 -1 -1 -1 -1 -1 1 0 0 0 0 -0 -0 0 -0 -0 0 0 nan
nan -1 -1 -1 -1 -0 -0 0 -0 -0 -1 -0 -1 -1 -1 -1 -1 0 1 0 -1 -0 2 0 -1 -1 -2 -1 -0 -1 -1 0 -1 0 0 0 0 -0 0 0 0 -0 -0 -0 nan
nan -0 -0 -0 -1 -1 -0 -0 0 0 -0 -0 -0 -0 -1 -1 -1 -1 0 -0 -0 0 1 -0 -1 -1 -2 -0 -1 -1 0 0 0 0 -0 -0 -1 -0 0 0 0 -0 -0 -0 nan
nan -1 -1 -0 -1 -0 -0 -0 -0 -0 -0 0 0 0 -0 -2 -1 -0 -1 0 1 0 -0 -0 -1 -1 -1 -1 -0 0 0 0 0 -0 -0 -0 0 0 1 1 -0 -1 -1 -0 nan
nan -0 -0 -0 -0 -1 -0 -0 -0 -0 -0 0 2 1 -1 -5 -1 -0 -1 1 1 -0 -0 -0 -0 0 -0 -0 -0 -1 -1 0 0 -1 -0 1 -0 -0 0 0 -0 -0 -0 -0 nan
nan -0 -0 -0 -0 -0 -0 -0 -0 -0 -0 0 1 0 -2 -1 -1 -1 0 1 -0 -0 -0 -0 -0 -1 -1 -0 -1 -1 0 -0 -1 -0 0 0 -2 -1 0 0 0 0 0 0 nan
nan 0 -0 -0 -0 -0 -0 -0 -0 -0 -0 0 1 -1 -1 0 -0 -0 0 -1 -1 0 -1 -1 -1 -1 -1 -1 -1 -0 -0 -1 -1 -1 1 0 -2 -1 0 0 1 0 -0 -0 nan
nan 0 0 -0 -0 -0 -1 -0 0 0 0 -0 -0 -1 -2 -1 0 -0 -0 0 -0 -0 -1 -1 -1 -1 -1 -1 -1 -1 -1 -1 -2 -0 1 0 -1 -1 0 1 0 0 -0 -0 nan
nan 0 0 0 0 -0 -1 -0 -0 0 -0 -1 -0 -0 -1 0 0 -0 0 -0 -0 -1 -2 -2 -1 -2 -2 -1 -1 -1 -0 -1 -1 0 1 0 -1 -1 0 1 0 -1 0 1 nan
nan -0 -0 -0 -0 -0 -0 -0 -0 -0 -1 -1 -0 -1 -1 -0 -0 -1 -0 -0 -1 -2 -1 -1 -2 -4 -1 -0 0 0 -0 -1 -1 0 1 1 -1 -2 -0 1 0 -1 -0 0 nan
nan -0 -0 -0 -0 -0 0 -0 0 -0 -1 -1 -0 -0 0 0 -1 -1 -1 -2 -1 -1 -1 -1 -3 -1 -0 0 -0 0 -0 -0 -1 -0 1 1 -0 -1 -1 -0 -0 0 0 -0 nan
nan -0 -0 -0 -0 -0 0 0 0 -0 -1 -1 -0 -0 -0 -0 -0 -1 -1 -1 -0 -1 -1 -2 -2 0 0 -1 -0 -0 -1 0 0 1 -0 -0 0 -1 -1 -1 -0 0 -0 -0 nan
nan -0 -0 0 -0 -0 -0 0 -0 -0 -1 0 -0 -0 -0 -0 0 -0 -0 -0 -1 -1 -0 -1 -0 -1 -1 -1 -0 -1 0 1 0 0 -0 -0 -0 -1 -1 -0 -1 -0 -0 -0 nan
nan 0 -0 0 0 -0 -0 -0 -0 -1 -1 -0 0 -0 -0 -0 0 -0 0 -0 -1 -1 -1 -1 -1 -0 -1 -0 -0 0 1 0 0 1 0 -1 -0 -1 -1 -1 -1 -1 -0 1 nan
nan 0 -0 -0 0 0 -0 -0 -0 -1 0 0 -0 -0 -1 -0 0 -0 -0 -0 -0 -0 -1 -1 -0 -1 -0 0 1 1 0 -0 0 0 -1 -1 -0 -1 -1 -1 -0 -0 1 0 nan
nan -0 -0 -0 -0 -0 -0 -0 -1 -0 -0 -1 -0 -1 -1 -0 0 0 0 -1 -2 -1 -0 0 -1 -2 -1 -0 -0 0 -1 -1 -1 -1 -1 -0 -0 -1 -1 -0 0 -0 0 -0 nan
nan -0 -0 0 0 0 -0 -0 0 -0 -0 -0 -1 -1 -1 0 0 0 0 0 -1 -3 -1 -0 -1 -1 -0 -1 -1 -1 -1 -0 -0 0 -0 -0 -0 -0 -0 -0 -0 -0 0 0 nan
nan 0 -0 -0 -0 -0 -0 -0 -0 -0 -0 0 -0 -0 -1 -1 -0 -0 0 -0 -0 -2 -2 -1 -1 -1 -0 -0 0 -1 0 1 0 0 -0 -0 -0 -0 -0 -0 -0 -0 -0 0 nan
nan -0 0 0 0 0 -0 -0 -1 -0 -0 -0 0 -0 -1 -1 -0 -0 0 -1 -0 -1 -2 -1 -1 -0 0 -0 -0 -0 0 -0 0 0 -0 -0 -0 -0 -1 -0 -0 0 1 0 nan
nan -0 0 0 -0 0 -0 0 -0 -0 0 -0 -0 0 -0 -0 -1 -0 -0 0 -0 -0 -1 -1 -0 -1 -1 -1 -0 0 0 0 0 -0 -1 -0 -0 -0 -0 0 0 -0 0 -0 nan
nan -0 0 0 -0 -0 -0 -0 0 -0 0 0 -0 -0 0 0 -0 -0 -0 -0 -0 0 -0 -0 -1 -1 -1 -0 0 1 0 -0 -0 -0 0 -0 -0 0 0 0 0 -0 -0 -0 nan
nan -0 0 0 0 -0 -0 -0 -0 -0 -0 0 -0 -0 -0 -0 -0 0 -0 0 -0 0 0 -1 -2 -2 -0 1 1 1 -0 0 0 0 -0 -1 -0 0 -0 -0 -0 -0 -0 -0 nan
nan -0 -0 -0 0 0 -0 -0 -0 -0 -0 -0 -0 0 0 -0 0 -0 -0 -0 0 0 -0 -1 -2 -1 -0 -0 -1 -1 -0 0 -0 -0 -0 -0 0 -1 0 -0 -0 -0 -1 -1 nan
nan -0 -0 -1 -0 -0 -0 -0 -0 -0 -0 -0 -1 -0 0 0 -0 0 1 0 0 0 -0 -0 -1 -1 -0 -1 -0 -0 -1 -0 -0 -0 -0 0 -0 -1 -0 0 0 0 -0 -1 nan
nan nan nan nan nan nan nan nan nan nan nan nan nan nan nan nan nan nan nan nan nan nan nan nan nan nan nan nan nan nan nan nan nan nan nan nan nan nan nan nan nan nan nan nan nan
Wind_Speed
12 14 15 17 17 18 19 21 23 23 22 24 26 28 28 27 28 26 27 24 15 10 16 11 12 13 13 15 15 14 11 14 19 14 11 5 8 2 3 11 12 10 13 15 15
12 13 14 16 17 17 16 15 17 21 21 22 22 25 26 26 26 32 32 29 25 22 19 16 16 18 21 20 15 18 15 23 21 13 15 9 10 9 10 17 21 20 20 13 13
15 15 14 15 16 18 19 18 18 17 20 20 19 21 21 18 18 19 23 26 27 27 29 23 20 20 26 24 25 22 24 23 26 26 23 21 23 23 18 18 26 25 24 22 23
15 16 17 17 17 17 18 19 19 19 17 17 19 18 16 9 9 5 17 16 22 31 31 27 25 26 23 25 28 29 29 28 32 32 24 20 29 27 27 25 31 29 27 30 28
16 16 17 17 18 18 18 18 19 20 20 18 16 17 13 10 21 11 11 11 4 6 26 34 34 31 28 26 29 31 25 31 29 31 30 29 31 32 34 29 32 27 27 25 25
16 17 18 18 19 19 19 19 19 18 19 20 20 17 11 19 14 23 28 18 14 7 13 29 21 30 29 31 29 32 34 35 35 34 32 28 29 33 34 31 34 27 28 27 26
17 19 20 20 20 20 20 20 20 19 19 20 20 15 16 28 19 16 20 29 21 13 16 16 29 15 23 22 33 32 27 27 25 31 28 32 27 28 33 28 32 28 24 26 28
17 18 20 21 21 21 21 22 21 20 19 17 16 10 13 17 17 22 22 28 23 27 19 16 16 29 22 17 16 20 24 25 26 23 24 18 30 24 23 24 24 21 24 28 29
17 18 18 19 20 23 23 22 19 16 14 12 7 10 15 10 11 17 16 21 20 20 20 16 18 24 19 21 18 25 26 32 26 25 24 25 35 25 30 23 19 22 26 29 33
20 21 23 22 21 21 23 19 14 9 5 2 6 7 16 12 6 5 7 9 13 19 17 23 19 15 20 19 30 28 25 26 28 21 17 27 33 23 27 25 25 25 27 30 31
21 24 24 23 23 24 20 14 7 7 7 14 11 18 22 18 14 14 8 6 11 20 24 30 20 27 43 34 26 26 26 31 26 25 24 26 30 27 27 19 27 31 30 31 32
22 23 23 25 25 24 11 10 4 6 14 22 31 31 33 28 18 23 14 12 13 21 24 20 30 46 29 29 29 29 28 30 24 19 22 23 29 27 22 25 28 33 30 32 29
22 22 24 25 25 10 12 6 3 10 9 20 17 17 16 12 19 27 20 24 18 19 26 33 40 27 28 31 32 31 31 24 26 19 18 22 28 28 27 33 35 31 27 28 27
24 24 24 26 10 11 9 3 7 8 6 9 4 5 4 5 7 17 14 26 20 24 22 30 33 26 32 33 31 32 24 24 24 20 23 21 24 27 25 27 22 29 30 32 25
25 25 26 20 16 8 6 5 6 3 6 6 6 2 3 7 8 7 9 17 27 21 15 30 20 35 29 43 29 30 18 22 23 21 23 27 19 21 19 23 25 25 27 22 18
27 27 23 8 6 8 8 7 3 5 8 1 4 3 7 7 3 6 5 12 16 27 26 28 17 22 41 20 28 22 18 21 18 16 20 21 21 21 23 26 24 21 21 18 10
29 22 8 7 4 4 2 4 5 7 8 1 8 8 15 15 3 10 7 12 12 17 27 25 29 22 21 29 24 23 22 10 13 13 15 17 15 23 21 19 22 16 12 12 10
25 7 9 5 8 2 2 5 5 6 7 16 13 17 18 12 1 7 9 7 15 23 18 23 21 30 22 30 24 30 27 14 18 14 13 19 11 14 11 18 28 25 12 11 12
13 4 10 9 7 3 5 5 5 11 8 11 17 16 15 6 4 8 3 3 6 15 20 21 28 27 25 24 29 28 27 25 8 4 8 9 14 13 18 15 13 13 20 14 12
9 1 12 10 6 1 2 5 5 6 13 14 15 9 13 12 8 7 1 5 6 12 14 9 12 25 33 24 26 28 24 22 13 15 12 8 12 7 3 6 10 12 14 14 16
8 3 8 8 3 2 3 6 12 13 16 8 13 13 15 14 13 13 5 7 4 9 15 13 8 17 24 24 27 18 23 21 17 12 13 6 6 7 13 7 11 12 16 19 21
9 2 6 8 3 2 5 11 11 13 13 10 8 6 8 10 12 12 8 3 11 4 9 6 8 11 27 26 24 24 21 26 14 20 10 7 2 4 4 3 8 6 13 20 22
11 3 6 6 4 6 11 15 11 14 15 7 10 6 13 11 5 5 6 12 12 7 3 3 11 11 12 24 22 27 22 27 15 9 19 12 3 3 6 5 4 10 16 22 24
7 4 4 3 6 8 11 8 12 12 11 13 13 12 12 10 7 7 9 7 5 8 9 8 9 17 7 22 18 25 28 26 23 12 13 16 11 8 8 10 7 10 17 22 25
6 3 4 4 6 11 11 8 12 9 8 16 6 7 11 8 16 2 7 13 7 5 5 4 12 19 13 8 7 13 25 23 26 19 15 14 18 14 11 8 6 10 19 22 24
5 5 7 16 11 11 7 8 12 14 12 10 13 17 17 16 13 17 13 6 2 5 5 4 4 13 16 14 8 8 13 26 23 22 21 11 13 13 14 13 7 6 19 23 24
5 5 5 9 6 6 6 10 12 17 10 10 13 16 14 12 16 22 22 18 15 13 6 4 4 10 17 16 7 10 13 19 21 19 21 19 16 3 2 5 7 1 19 24 25
Wind_Direction
322 320 324 325 318 309 307 302 295 291 287 284 282 279 278 275 275 277 268 261 261 259 249 246 215 210 202 226 222 224 239 247 250 249 246 188 236 211 269 271 272 264 269 287 295
338 335 332 330 326 323 318 315 310 307 298 291 286 281 280 282 282 273 263 265 255 244 233 221 213 212 214 223 219 216 230 244 249 263 270 241 246 278 278 274 276 273 271 276 274
334 332 328 325 323 322 323 321 319 312 311 311 300 289 283 289 293 265 250 254 253 244 238 230 224 220 231 225 220 228 241 249 248 256 260 280 271 272 264 271 272 283 298 288 283
334 332 329 325 320 316 314 315 317 315 313 314 315 309 297 271 253 256 232 235 239 240 227 216 218 219 234 232 231 246 244 244 263 262 261 260 273 279 267 270 274 285 286 289 288
332 328 326 324 321 317 314 312 309 312 317 311 305 305 316 250 240 270 226 225 278 239 213 205 214 217 232 237 240 243 251 252 252 262 265 268 268 270 276 280 277 282 286 281 283
338 332 327 323 320 317 314 312 307 309 306 303 302 297 282 254 259 243 240 232 236 228 216 210 221 225 240 242 243 247 247 250 257 256 261 260 265 270 271 277 278 278 282 283 286
343 337 333 330 325 320 315 311 309 306 300 296 291 282 262 252 265 265 245 235 237 227 227 217 216 217 227 249 251 257 254 257 247 252 252 261 265 261 267 268 271 277 280 284 289
341 337 334 332 329 323 320 318 313 304 298 289 281 244 258 288 268 261 250 249 245 240 232 223 225 230 235 250 265 249 243 249 232 232 245 239 260 260 268 266 271 270 280 288 290
345 339 336 332 330 327 325 320 311 302 293 282 250 217 277 269 258 261 249 245 241 238 229 225 218 225 223 231 246 231 237 236 245 242 238 233 256 252 259 256 260 273 281 287 295
346 342 338 333 331 333 331 327 318 307 303 216 239 229 248 246 250 241 275 239 233 214 207 212 208 213 223 212 226 229 232 243 258 240 224 241 249 254 258 258 273 277 281 289 294
341 338 335 333 330 332 336 347 300 248 258 253 263 238 277 277 275 269 260 231 214 217 204 197 203 214 218 220 235 246 243 246 245 244 242 236 253 260 258 267 270 277 286 285 289
341 337 333 328 328 331 337 334 321 313 296 275 261 260 261 268 274 264 251 227 203 221 212 191 217 221 220 223 228 236 242 247 255 247 242 253 265 274 269 262 271 276 278 282 284
344 340 334 327 328 339 331 294 286 328 267 288 258 258 258 240 249 257 233 228 233 228 214 217 223 220 221 222 226 227 232 239 249 252 249 259 266 267 265 259 257 268 266 271 274
341 337 334 330 345 312 319 259 304 320 280 258 208 206 193 212 228 243 230 218 222 232 228 232 236 216 220 226 219 231 222 241 250 252 253 245 268 266 270 268 262 264 269 266 268
337 334 329 322 301 315 290 295 305 270 278 94 136 135 210 232 328 91 199 225 237 217 220 226 223 230 224 226 217 233 224 230 241 251 266 256 260 271 268 267 266 265 255 253 251
338 332 329 349 292 299 285 287 268 234 247 317 129 291 286 209 299 313 269 224 254 239 239 240 232 227 231 224 220 220 217 224 234 243 249 251 253 266 263 264 267 260 256 227 208
340 335 2 351 322 305 271 263 236 250 14 292 339 324 302 283 297 297 301 280 219 213 228 230 237 247 240 217 205 188 193 198 220 224 253 242 243 252 261 256 253 254 240 163 178
348 24 8 349 327 349 221 219 267 344 290 320 323 308 282 290 167 298 286 315 291 236 223 222 228 221 214 214 191 192 189 207 215 229 244 206 240 243 252 255 249 247 225 167 167
5 57 15 341 346 160 249 243 335 340 331 315 306 271 270 218 253 272 278 308 291 317 249 211 232 192 226 213 199 192 213 213 244 268 259 176 239 263 258 249 246 232 208 186 164
359 302 3 7 39 174 292 298 315 305 304 306 295 280 286 292 292 289 250 128 310 327 308 286 262 225 198 206 205 196 195 203 211 225 218 228 251 245 303 210 214 187 187 176 167
357 276 353 5 30 339 338 326 318 322 319 312 307 304 299 285 283 283 272 130 134 307 300 274 256 218 192 204 191 188 198 209 213 232 204 237 229 202 249 214 197 199 181 168 167
356 308 342 350 304 353 327 325 316 305 326 301 285 289 284 296 281 263 262 246 171 270 303 260 273 258 212 202 214 198 201 198 197 195 237 237 205 299 228 133 206 118 155 159 159
339 313 327 3 352 343 317 306 287 303 322 322 298 279 312 292 296 283 318 114 167 206 293 349 227 227 224 201 206 209 209 196 213 189 202 205 212 174 132 136 154 142 149 153 155
342 329 347 1 352 326 337 328 329 320 315 301 301 289 327 315 267 291 342 329 288 244 239 251 258 242 211 190 192 205 201 193 203 206 189 212 190 176 132 126 127 151 161 159 159
2 360 341 311 339 313 308 299 311 340 316 317 295 313 331 313 317 124 307 320 294 213 240 255 239 223 245 303 304 262 206 199 205 214 224 192 221 239 171 81 61 161 168 165 163
4 349 327 298 303 324 310 300 315 329 311 300 300 327 323 302 295 301 312 308 318 340 294 256 281 248 238 241 240 235 240 205 204 206 226 216 228 240 267 281 261 201 183 175 171
332 316 286 292 302 313 318 318 302 309 289 303 306 305 299 323 323 302 291 284 266 282 292 313 303 231 226 212 209 223 210 215 204 208 218 220 232 190 211 238 266 139 193 183 176
Height
1528 1524 1523 1519 1518 1516 1514 1514 1512 1512 1512 1511 1510 1510 1511 1512 1511 1511 1509 1512 1515 1516 1518 1519 1519 1522 1523 1522 1520 1518 1514 1507 1499 1498 1496 1499 1497 1501 1502 1501 1499 1500 1500 1501 1501
1526 1524 1521 1518 1515 1514 1512 1511 1508 1507 1507 1506 1506 1506 1506 1506 1505 1501 1504 1504 1508 1511 1513 1516 1516 1519 1518 1516 1515 1512 1502 1498 1494 1492 1493 1493 1498 1497 1501 1500 1498 1496 1495 1497 1498
1524 1522 1520 1518 1515 1512 1509 1507 1506 1506 1503 1502 1501 1500 1502 1502 1503 1496 1493 1498 1500 1503 1506 1511 1514 1515 1512 1509 1505 1501 1492 1492 1491 1492 1494 1493 1494 1493 1494 1494 1494 1492 1493 1494 1494
1523 1521 1518 1516 1514 1512 1511 1509 1505 1504 1502 1500 1497 1497 1498 1500 1497 1486 1489 1490 1489 1491 1497 1504 1507 1507 1504 1498 1500 1495 1488 1491 1492 1489 1492 1492 1491 1489 1488 1490 1490 1491 1491 1488 1486
1523 1521 1519 1516 1514 1512 1509 1506 1504 1500 1498 1498 1496 1496 1494 1496 1487 1488 1486 1485 1485 1485 1487 1495 1498 1497 1492 1491 1493 1485 1488 1489 1489 1491 1491 1491 1486 1483 1481 1485 1485 1487 1485 1483 1481
1521 1518 1516 1513 1510 1508 1505 1502 1500 1498 1497 1494 1493 1493 1494 1489 1481 1480 1482 1483 1483 1487 1487 1491 1491 1489 1486 1484 1480 1480 1481 1483 1486 1484 1483 1483 1478 1479 1477 1480 1479 1480 1478 1475 1474
1518 1515 1512 1509 1506 1503 1501 1498 1497 1495 1493 1491 1490 1487 1486 1475 1477 1475 1477 1477 1479 1483 1486 1487 1487 1487 1484 1483 1480 1478 1477 1475 1478 1480 1476 1479 1469 1469 1471 1473 1472 1471 1471 1469 1467
1516 1513 1509 1506 1503 1500 1497 1494 1491 1489 1487 1485 1483 1483 1474 1470 1469 1470 1471 1471 1473 1475 1480 1481 1484 1484 1481 1481 1478 1476 1474 1471 1467 1472 1475 1479 1456 1457 1462 1464 1462 1464 1464 1462 1460
1514 1511 1508 1504 1500 1496 1492 1489 1485 1482 1480 1479 1479 1480 1468 1463 1462 1463 1465 1466 1470 1473 1474 1478 1481 1479 1480 1478 1476 1464 1460 1458 1464 1461 1465 1468 1448 1452 1456 1456 1458 1459 1458 1455 1451
1511 1508 1504 1500 1496 1493 1488 1483 1479 1478 1478 1478 1479 1483 1465 1462 1463 1463 1463 1462 1464 1467 1471 1472 1472 1470 1469 1461 1441 1455 1455 1457 1453 1450 1458 1459 1443 1449 1449 1450 1452 1450 1450 1446 1443
1509 1505 1501 1497 1494 1490 1486 1485 1483 1479 1477 1472 1467 1463 1457 1460 1460 1459 1460 1461 1460 1460 1452 1458 1462 1447 1426 1441 1444 1446 1442 1443 1441 1447 1448 1449 1444 1439 1441 1443 1447 1443 1441 1439 1436
1508 1503 1499 1494 1491 1488 1486 1486 1486 1486 1474 1464 1457 1456 1454 1457 1456 1453 1458 1458 1454 1447 1452 1447 1437 1401 1439 1441 1443 1445 1445 1440 1438 1440 1446 1447 1442 1435 1434 1436 1438 1435 1432 1431 1429
1506 1501 1497 1492 1488 1486 1486 1485 1484 1483 1475 1453 1449 1448 1448 1448 1447 1445 1449 1448 1444 1441 1434 1423 1397 1437 1429 1432 1435 1434 1439 1444 1444 1440 1442 1447 1442 1436 1433 1429 1425 1424 1424 1424 1423
1503 1499 1494 1490 1490 1486 1485 1483 1483 1483 1469 1439 1442 1443 1444 1444 1442 1437 1438 1441 1436 1432 1432 1426 1415 1416 1421 1419 1421 1426 1435 1443 1445 1450 1447 1441 1431 1426 1421 1415 1414 1414 1416 1414 1414
1501 1496 1491 1487 1485 1485 1485 1482 1482 1482 1451 1434 1439 1441 1439 1438 1435 1432 1433 1435 1428 1425 1426 1406 1411 1410 1406 1392 1417 1416 1427 1437 1440 1443 1442 1440 1438 1419 1413 1410 1406 1406 1406 1405 1408
1497 1491 1486 1485 1484 1482 1482 1481 1482 1477 1445 1432 1433 1436 1432 1430 1432 1432 1430 1430 1429 1427 1416 1409 1403 1403 1390 1404 1409 1420 1428 1434 1433 1436 1437 1432 1433 1421 1406 1399 1395 1396 1395 1396 1406
1492 1486 1483 1482 1483 1479 1480 1481 1471 1454 1437 1435 1440 1437 1434 1427 1429 1431 1426 1421 1419 1422 1415 1405 1402 1399 1398 1401 1405 1414 1425 1434 1439 1434 1427 1415 1419 1403 1389 1386 1389 1389 1390 1397 1403
1489 1485 1484 1483 1479 1477 1480 1478 1463 1443 1445 1441 1442 1439 1430 1422 1425 1430 1424 1422 1410 1406 1398 1407 1402 1392 1385 1384 1388 1398 1403 1400 1423 1417 1409 1401 1411 1391 1379 1381 1382 1385 1389 1395 1400
1488 1487 1487 1483 1479 1479 1480 1468 1453 1454 1453 1451 1446 1433 1422 1418 1424 1421 1422 1429 1434 1411 1403 1386 1387 1373 1380 1380 1380 1389 1392 1384 1391 1393 1398 1387 1392 1380 1374 1375 1374 1377 1384 1390 1397
1489 1489 1486 1482 1480 1481 1480 1467 1460 1461 1458 1453 1446 1435 1429 1420 1421 1415 1415 1434 1435 1430 1419 1394 1388 1365 1374 1376 1375 1374 1383 1396 1389 1409 1413 1386 1389 1382 1368 1367 1368 1371 1377 1386 1395
1490 1487 1487 1484 1483 1483 1475 1469 1462 1461 1459 1452 1444 1439 1432 1426 1421 1417 1417 1430 1436 1433 1424 1406 1396 1369 1366 1365 1360 1368 1374 1376 1378 1380 1395 1397 1384 1369 1369 1362 1365 1367 1374 1385 1393
1491 1485 1487 1484 1484 1481 1477 1471 1469 1459 1456 1453 1446 1443 1436 1430 1422 1417 1413 1411 1430 1429 1425 1404 1394 1379 1361 1358 1356 1359 1364 1373 1378 1391 1382 1378 1379 1362 1363 1361 1364 1369 1377 1384 1390
1492 1491 1486 1485 1483 1479 1476 1468 1464 1460 1455 1453 1448 1440 1435 1429 1427 1417 1416 1425 1424 1425 1426 1416 1393 1378 1369 1359 1358 1356 1359 1365 1370 1367 1386 1388 1382 1363 1365 1366 1369 1374 1380 1385 1390
1495 1489 1486 1486 1485 1483 1476 1465 1461 1459 1454 1452 1446 1440 1436 1426 1421 1419 1424 1426 1424 1424 1424 1423 1400 1372 1360 1354 1351 1356 1355 1359 1370 1375 1373 1378 1372 1364 1364 1367 1373 1377 1383 1386 1389
1496 1493 1493 1484 1482 1483 1477 1471 1464 1460 1455 1448 1442 1438 1436 1432 1422 1426 1427 1422 1420 1421 1421 1415 1389 1376 1375 1375 1373 1359 1353 1357 1365 1369 1372 1368 1374 1366 1361 1369 1374 1379 1383 1386 1388
1498 1497 1493 1487 1483 1479 1473 1466 1461 1458 1456 1450 1441 1437 1436 1430 1425 1419 1419 1423 1427 1422 1418 1411 1392 1375 1377 1376 1372 1366 1353 1353 1360 1367 1368 1368 1372 1367 1367 1368 1373 1378 1380 1383 1386
1497 1496 1494 1485 1480 1478 1472 1469 1467 1464 1455 1449 1447 1443 1434 1428 1427 1424 1421 1419 1419 1417 1413 1408 1404 1382 1374 1365 1368 1372 1358 1353 1358 1362 1364 1371 1366 1366 1366 1369 1371 1373 1378 1380 1382